Theta_e
302 302 302 302 302 303 304 304 304 305 305 306 306 307 307 308 307 306 306 309 302 296 299 302 304 299 301 299 293 298 298 298 298 293 293 294 292 294 292 293 291 290 289 289 290 286 284 301 300 294 301 305 304 303
301 302 302 303 303 303 303 304 304 305 305 306 306 306 307 308 308 307 303 311 308 300 299 305 306 308 307 304 301 301 298 296 300 298 297 298 293 295 293 287 297 290 295 291 293 294 301 304 303 306 306 302 303 303
301 301 302 302 302 302 302 304 304 304 305 305 306 306 307 308 307 306 305 306 307 299 300 302 301 307 310 309 308 299 303 301 302 304 300 299 291 296 291 291 292 296 300 296 294 299 300 302 305 305 305 303 303 303
300 300 301 302 302 301 302 303 303 304 304 306 306 306 307 307 307 307 305 308 303 296 288 295 306 305 309 310 307 308 306 307 307 304 299 296 293 296 294 294 293 296 298 295 295 298 300 301 301 301 301 301 300 300
299 300 300 302 302 301 302 303 303 304 304 305 306 307 307 307 307 308 310 308 307 298 291 297 302 305 308 309 307 307 306 303 302 298 297 293 296 295 296 295 293 298 295 292 291 299 299 299 301 300 299 298 299 298
299 299 300 301 302 302 302 302 303 304 304 305 306 307 307 307 306 306 302 309 310 305 295 292 301 302 304 305 304 304 303 302 300 299 297 298 297 295 292 287 295 298 300 301 297 302 299 300 300 299 298 298 299 297
298 299 299 300 301 302 302 302 302 303 304 305 305 306 307 306 307 301 298 302 305 305 295 293 294 302 303 303 302 303 304 302 302 299 295 295 294 295 293 287 296 299 300 302 301 301 297 298 296 298 298 297 297 297
298 299 299 300 300 302 302 302 302 302 304 304 306 306 307 307 305 301 305 305 304 299 297 292 292 295 302 299 296 307 302 303 300 297 298 295 296 296 291 296 299 300 299 299 298 299 298 298 297 295 296 295 294 294
298 298 299 299 301 301 302 302 302 303 303 304 304 306 305 305 299 301 305 304 304 299 291 294 291 290 303 299 300 302 304 292 297 295 295 297 293 291 295 297 299 299 297 297 297 297 296 293 293 294 294 293 293 293
298 298 298 299 300 301 301 302 302 302 303 303 303 298 293 300 306 306 301 296 295 295 298 292 299 293 298 298 293 294 298 293 289 294 298 294 293 299 300 302 302 300 299 298 296 292 292 292 292 293 292 294 292 288
297 298 298 299 300 301 301 301 302 303 303 300 295 293 301 304 301 297 290 290 292 291 295 296 296 292 299 292 292 297 294 295 288 292 291 290 291 296 301 300 301 300 299 297 296 295 296 294 292 290 291 292 289 287
298 298 299 299 300 300 302 303 304 303 300 298 297 300 301 296 293 289 288 290 289 289 294 293 294 297 298 302 296 296 291 294 286 296 291 288 293 296 298 298 299 299 296 296 296 295 295 293 291 291 291 289 287 287
298 298 299 299 300 302 301 303 304 304 303 301 296 292 292 291 285 285 284 287 289 293 295 295 292 296 298 299 296 294 287 287 295 289 288 292 294 296 298 298 297 297 296 296 295 295 294 292 292 291 291 290 288 286
298 299 299 299 301 301 302 303 303 302 300 291 288 285 287 287 289 290 291 292 296 297 296 296 295 295 298 293 293 287 292 293 287 287 287 292 295 298 299 298 296 295 295 295 294 294 292 291 290 291 291 290 288 285
299 299 299 299 299 300 301 304 303 303 296 289 289 285 288 292 294 294 296 297 299 301 297 297 297 298 294 291 294 291 288 286 290 289 294 296 299 299 298 297 296 295 295 295 294 293 292 291 290 290 291 290 289 287
299 299 300 299 299 299 301 304 303 301 295 292 291 289 292 290 289 291 293 294 300 301 301 300 295 292 290 292 287 286 287 286 290 295 298 300 299 300 299 298 297 296 296 296 294 294 293 291 290 289 290 290 289 288
298 297 298 298 298 300 302 301 298 293 292 290 289 293 290 290 293 295 294 297 304 300 294 295 287 288 296 289 286 291 290 292 296 300 300 302 300 300 300 298 297 297 297 296 294 293 292 292 291 290 288 289 289 288
297 299 298 298 299 299 300 299 295 291 288 291 290 292 294 296 297 299 299 301 298 299 299 294 299 291 289 288 291 295 298 299 301 300 300 301 302 301 299 298 297 297 297 296 295 294 293 291 290 289 289 289 288 288
298 298 298 298 298 296 294 296 297 289 291 294 296 298 299 300 302 302 302 302 300 301 301 300 293 293 296 300 299 300 300 297 296 298 300 302 302 300 298 298 298 298 297 296 296 293 293 292 291 290 290 290 287 288
298 298 299 300 301 297 291 294 299 292 290 293 296 297 298 298 300 302 303 302 298 297 297 295 297 299 300 302 304 303 303 301 298 296 297 299 300 299 298 298 298 298 298 297 296 292 293 293 292 292 291 290 289 288
298 298 299 301 300 297 295 294 293 293 293 292 296 296 297 300 299 299 297 301 293 293 296 300 303 303 305 305 306 308 304 301 299 299 298 296 300 299 299 299 300 298 297 296 295 294 293 293 294 293 292 292 291 290
296 298 295 300 294 294 293 297 293 295 293 293 294 297 295 296 298 299 301 297 297 298 302 304 304 305 304 304 305 307 304 300 302 299 295 296 298 298 298 298 298 296 296 296 296 295 295 295 294 294 293 292 292 291
297 296 295 295 289 289 289 297 290 292 287 291 295 292 294 296 298 303 295 299 301 305 306 305 305 306 305 305 307 306 302 302 300 299 299 299 299 300 300 299 299 297 296 297 298 297 297 291 292 294 293 293 293 292
295 291 289 289 289 286 292 289 291 291 291 289 289 289 292 296 299 295 292 298 301 306 306 304 305 304 305 305 304 304 302 303 301 301 301 299 297 298 300 300 300 300 299 298 298 298 297 297 293 295 295 294 294 293
286 287 288 285 290 287 286 287 288 290 286 288 288 290 294 299 293 292 292 298 300 300 302 306 304 304 303 304 305 306 307 304 300 300 301 300 299 299 300 301 301 302 302 299 298 297 297 297 297 296 295 295 293 292
283 288 285 287 289 287 288 286 286 287 288 288 290 295 298 294 289 288 293 298 298 300 300 300 302 305 305 305 305 306 305 307 302 300 304 305 303 299 298 298 299 301 303 302 299 297 297 296 296 295 293 291 286 292
282 284 291 295 293 292 290 293 294 291 288 287 291 292 292 287 287 292 296 297 297 297 300 302 303 302 304 305 309 310 310 307 305 301 304 306 305 306 302 300 299 302 303 302 300 299 297 297 296 295 295 294 293 292
288 290 285 290 290 293 288 289 289 288 289 289 290 286 288 288 288 292 294 296 296 296 300 299 301 304 304 306 308 307 307 304 298 299 301 301 303 304 303 303 304 289 302 302 301 300 299 298 296 295 294 293 292 293
288 292 291 288 290 291 291 290 292 296 298 296 290 289 288 294 293 292 293 293 294 297 298 300 303 305 306 309 309 308 304 301 297 294 298 298 297 298 301 300 300 301 300 299 285 293 298 296 295 294 293 292 292 292
289 294 290 290 289 288 293 297 297 301 303 302 300 297 296 294 298 300 299 297 296 295 299 301 302 303 303 305 303 302 304 303 305 301 299 298 298 299 300 300 299 299 299 297 295 291 285 291 289 292 291 290 290 289
295 293 291 291 289 295 298 302 303 302 301 299 299 295 294 293 295 299 298 297 297 298 299 299 301 303 302 301 303 304 303 304 303 303 299 299 298 299 299 299 299 299 298 295 294 294 292 292 292 291 289 288 287 287
293 291 290 288 291 298 300 297 297 295 293 292 292 295 294 292 291 294 296 297 296 296 292 293 295 297 298 300 300 299 290 298 300 303 298 299 298 298 297 298 298 297 296 295 295 293 293 292 291 290 288 287 286 286
291 291 291 290 289 290 295 294 291 289 291 292 292 293 292 291 290 292 297 296 295 294 292 292 292 293 294 296 296 297 291 295 289 285 286 288 289 292 297 298 297 297 295 295 294 293 292 291 290 289 288 286 286 286
Wind_Speed
16 15 15 17 17 17 17 18 17 17 18 18 18 18 18 19 9 5 6 4 3 2 9 11 11 6 2 4 2 2 5 4 3 4 3 2 4 3 3 3 8 7 7 5 7 6 7 5 6 6 5 2 3 4
16 17 16 15 15 16 16 17 17 16 17 19 18 18 18 19 12 5 5 2 2 3 6 6 15 14 12 4 6 4 4 1 3 1 2 1 4 3 5 4 5 5 5 3 6 1 4 1 5 4 5 5 4 5
17 17 18 16 16 16 17 18 18 18 18 19 19 19 19 19 13 7 5 3 3 3 7 11 6 0 5 8 6 5 2 3 2 5 2 2 3 3 4 4 2 5 4 5 4 5 1 3 3 3 3 5 5 6
17 17 18 18 16 17 18 17 19 19 19 20 19 19 19 16 10 7 4 0 2 3 3 2 7 1 4 5 4 5 3 4 2 3 2 3 3 2 2 3 7 4 4 6 8 6 3 5 6 6 5 4 4 5
17 17 18 20 17 16 16 17 19 19 19 21 20 20 18 12 6 7 5 3 3 2 3 3 6 3 7 4 5 4 5 4 2 3 3 2 1 3 2 4 7 7 8 5 3 5 4 3 3 3 5 6 7 9
17 18 18 20 19 17 17 17 17 19 20 21 20 21 14 8 4 3 3 2 4 2 2 2 5 4 5 2 5 4 4 3 2 2 1 1 3 4 2 3 4 4 3 4 3 2 3 5 3 5 8 7 9 10
17 18 18 20 21 20 18 17 19 19 21 21 22 21 12 6 3 3 3 2 0 1 1 3 4 4 8 4 0 4 5 2 1 2 2 1 2 4 3 2 5 3 5 7 2 2 3 2 8 6 7 9 7 11
17 18 19 20 21 21 19 18 20 20 19 21 22 21 11 8 2 2 2 3 1 1 3 3 2 4 5 4 2 2 2 2 1 1 1 3 4 4 4 6 3 5 4 5 4 5 5 3 3 6 8 10 12 12
18 18 19 20 21 20 19 18 19 20 20 21 21 5 0 3 3 1 7 4 1 1 1 3 3 3 6 2 2 1 0 2 0 2 2 3 4 5 3 1 4 5 1 4 3 3 3 4 6 8 11 11 14 15
18 19 19 20 21 20 19 20 21 20 20 23 3 1 2 2 9 8 3 1 0 1 3 4 1 4 2 3 2 3 1 2 3 4 3 4 4 4 3 7 9 10 5 2 1 3 5 6 8 11 10 12 12 7
18 19 19 20 22 22 21 23 21 20 11 2 2 1 1 1 1 1 1 2 2 4 5 1 2 3 4 2 3 4 1 2 3 3 3 2 3 3 7 9 8 7 6 8 8 7 8 8 8 8 10 13 7 10
18 19 19 20 22 22 23 23 15 3 1 2 4 4 1 0 0 2 2 3 4 1 4 3 4 3 3 3 3 4 1 2 2 3 2 2 5 8 8 9 8 8 9 9 8 8 8 8 8 8 10 9 8 9
19 18 18 20 21 19 21 21 12 8 6 1 2 1 2 1 3 4 6 3 3 5 5 5 6 4 4 4 2 2 4 3 5 2 3 1 10 9 9 8 9 9 9 8 8 7 7 9 10 10 9 8 10 10
20 18 18 19 17 18 20 20 4 4 1 0 1 2 3 4 3 1 1 2 3 2 5 7 5 3 2 4 2 4 2 1 3 4 2 4 10 11 9 8 9 9 8 8 8 7 8 9 9 9 9 9 7 11
18 19 18 9 17 20 22 16 6 1 1 1 1 2 3 2 3 4 5 3 3 2 6 4 2 1 3 3 2 1 3 4 3 1 3 7 11 11 9 9 10 8 7 7 7 7 8 8 8 9 9 10 10 9
17 18 2 13 19 22 21 7 1 1 1 1 2 3 2 1 1 2 2 2 4 5 3 2 2 2 3 2 3 3 3 3 2 1 8 9 11 10 9 9 9 7 7 8 7 6 7 7 8 8 9 10 11 11
14 4 10 16 19 21 11 3 1 1 2 2 0 1 2 4 4 3 3 1 1 6 3 2 3 2 3 3 3 2 2 2 3 4 6 9 11 11 9 9 9 7 8 9 8 7 8 7 7 8 9 10 10 11
6 7 12 16 15 7 2 2 2 1 1 2 1 3 1 5 5 2 3 2 1 2 3 1 1 3 3 2 3 3 3 4 2 5 7 9 10 10 9 10 9 9 9 9 8 8 7 7 7 6 7 7 7 8
10 11 16 16 7 4 3 1 3 3 2 3 1 3 3 3 3 3 1 3 2 3 4 2 4 2 2 2 3 4 3 5 5 7 8 9 10 10 10 10 9 9 9 9 7 6 6 8 6 5 5 6 6 6
14 13 8 12 5 2 2 1 1 3 2 4 4 3 4 4 4 3 2 4 0 1 4 2 2 3 3 4 3 4 5 7 7 7 8 8 8 11 10 9 7 8 7 8 8 6 5 6 5 6 6 7 7 7
5 4 9 4 1 2 3 2 2 1 4 3 4 4 4 3 4 3 2 3 2 2 4 4 1 4 3 3 2 1 5 7 7 6 7 9 9 9 8 6 7 6 6 7 6 6 4 4 5 5 5 6 6 7
2 8 2 2 1 1 3 2 3 3 3 3 4 2 4 3 2 2 4 3 3 4 3 1 3 3 3 2 3 2 7 6 4 6 6 9 9 9 8 8 7 6 5 5 6 6 6 6 5 5 5 5 4 6
4 2 3 1 1 1 2 2 3 2 3 2 3 3 3 2 2 3 3 3 2 1 2 3 4 4 4 5 6 7 10 9 7 7 7 7 8 8 8 7 7 7 6 5 4 6 7 7 5 5 6 4 4 4
1 2 2 1 2 2 2 3 2 3 3 2 3 3 2 1 3 3 3 2 3 1 2 3 4 4 4 6 5 8 8 6 6 5 6 7 7 8 8 8 7 6 5 7 5 6 7 7 7 5 5 4 4 4
2 2 2 3 3 4 5 4 4 4 3 3 3 3 2 2 3 3 2 3 3 5 4 1 4 2 1 3 4 6 7 6 5 4 2 6 7 7 7 6 6 6 7 8 7 7 7 7 6 5 5 4 4 4
3 4 4 3 3 4 2 4 2 1 3 2 3 2 2 3 4 2 2 2 3 3 4 4 5 2 2 3 2 4 7 6 4 4 9 9 7 8 9 9 7 6 7 8 8 9 8 7 7 7 7 6 3 3
3 4 4 3 3 3 4 4 3 3 3 2 3 4 2 3 1 3 2 2 2 3 4 5 5 5 5 3 1 2 6 7 6 2 5 6 5 5 6 8 9 6 9 9 9 9 9 9 9 7 7 6 5 5
4 3 5 1 4 4 4 3 4 4 1 1 2 2 2 4 3 2 2 2 3 4 5 4 6 4 4 5 2 0 4 5 5 5 4 4 2 3 4 3 3 9 9 9 9 8 8 8 8 8 8 7 6 5
5 3 4 6 5 5 5 4 3 2 4 3 1 1 1 2 1 1 1 2 4 5 5 5 3 3 3 1 2 2 4 6 9 7 13 8 6 5 4 7 10 9 9 9 8 6 10 9 9 9 8 7 6 5
4 5 4 4 5 5 4 2 2 2 1 2 1 2 3 2 2 3 3 3 3 3 5 5 5 5 4 2 2 2 3 3 3 3 3 6 4 6 7 8 9 10 10 11 12 13 12 13 11 9 8 6 5 5
1 4 5 5 4 3 2 1 1 2 2 2 2 3 1 1 2 2 2 3 4 4 4 4 4 3 4 3 2 1 1 2 5 8 5 3 5 7 7 7 8 9 10 12 12 11 12 10 8 9 8 7 6 4
5 6 5 6 5 2 3 3 3 4 3 4 5 2 2 3 3 3 1 2 2 3 3 3 5 4 5 4 2 3 1 3 4 5 11 8 7 9 9 8 8 9 11 11 10 11 12 11 9 9 8 8 7 6
5 3 2 3 3 4 2 3 2 3 3 4 3 2 3 2 1 2 2 3 2 3 4 4 4 5 7 6 5 4 2 4 6 6 7 8 9 9 10 9 9 10 13 11 11 11 11 12 10 10 9 9 8 7
Wind_Direction
325 320 326 319 323 322 324 325 323 324 324 327 320 317 318 318 304 280 286 222 236 232 277 276 291 274 239 181 245 115 212 182 202 225 249 166 252 182 217 144 167 170 183 191 211 218 247 116 179 245 30 341 343 330
325 328 322 326 327 330 329 325 321 320 320 321 319 319 314 316 313 251 274 244 188 231 298 307 281 286 286 335 308 172 29 54 30 268 252 264 198 195 229 195 187 214 222 199 207 242 102 180 314 351 322 328 350 332
325 325 326 323 323 327 328 327 324 321 319 316 317 317 314 314 302 248 273 259 226 236 268 237 291 128 268 241 255 293 128 58 142 337 316 14 253 296 213 229 256 220 207 237 227 180 4 328 330 347 347 340 2 345
324 323 321 322 317 320 322 324 321 320 318 317 317 315 315 311 298 248 236 292 292 115 263 269 331 178 330 178 184 244 61 105 128 249 259 260 245 254 227 9 263 53 209 246 250 257 321 67 53 16 13 9 343 327
321 322 323 323 317 321 322 324 324 319 315 316 315 318 316 318 291 271 249 212 212 223 290 355 334 18 1 120 123 154 154 183 194 193 220 229 20 265 225 285 246 216 243 247 311 61 325 6 354 355 328 334 327 317
322 324 324 323 322 316 319 320 322 323 321 321 317 319 311 326 320 292 239 149 201 175 248 221 206 167 152 150 118 126 120 60 24 292 134 67 59 267 254 221 273 219 217 350 45 288 298 28 30 349 330 330 324 314
322 321 321 323 323 319 315 320 324 321 320 325 322 312 291 296 283 271 4 356 18 189 234 275 151 96 122 130 337 194 178 133 326 112 220 194 168 224 263 236 159 112 127 129 155 264 220 58 356 350 336 326 305 296
320 320 321 321 319 317 313 317 321 317 319 318 314 307 279 254 211 235 151 139 160 90 252 251 109 153 206 157 190 250 201 147 65 16 171 215 151 219 253 228 148 109 106 111 87 45 28 15 329 1 346 337 324 315
321 319 320 320 320 319 319 318 317 315 316 314 315 298 349 192 174 122 134 126 80 180 243 245 206 145 181 82 349 126 183 142 328 260 227 209 209 224 267 62 109 112 158 117 90 45 35 25 8 3 350 348 334 355
319 320 319 321 320 321 322 319 316 315 314 305 293 57 254 315 115 143 179 184 99 235 240 265 345 116 259 152 104 194 200 181 207 176 185 222 243 233 353 98 118 148 217 113 222 76 28 25 17 5 1 354 6 357
316 317 320 321 321 321 320 314 306 307 300 12 344 273 276 41 232 110 123 234 195 210 192 220 262 121 166 162 145 226 255 181 249 152 220 212 206 75 108 112 111 110 96 84 76 63 53 38 18 8 4 14 14 349
313 314 317 320 320 321 316 316 316 276 226 251 297 286 266 196 209 213 193 170 223 232 164 200 158 145 166 210 202 170 240 209 255 140 253 224 111 138 139 123 119 105 107 94 72 67 62 48 32 23 15 31 7 5
318 321 320 318 320 327 330 334 328 280 262 211 235 246 253 128 203 231 176 179 200 170 160 168 156 181 162 221 157 150 228 243 134 214 211 48 126 142 148 129 118 111 105 95 77 73 64 55 48 31 19 47 20 19
313 314 316 317 322 330 329 327 356 16 10 53 228 189 252 176 226 202 285 32 64 157 150 171 150 194 129 177 113 235 187 290 243 224 107 132 164 148 140 129 132 122 114 101 81 67 64 60 55 40 31 34 42 29
319 315 311 314 336 336 333 332 221 263 312 300 274 256 217 19 356 335 347 289 108 257 158 166 157 152 139 185 209 276 214 223 248 54 94 148 149 146 138 141 130 129 128 103 86 72 73 70 57 49 38 37 37 47
323 308 236 342 337 332 330 316 12 181 259 261 243 272 349 279 247 255 287 259 206 212 186 167 184 196 160 197 223 222 279 330 58 319 125 138 147 142 139 135 141 129 120 111 98 84 75 65 63 61 52 47 43 39
309 271 348 328 330 326 324 302 303 301 312 290 282 280 253 254 278 82 207 244 272 202 197 148 195 196 135 198 210 356 286 11 287 134 131 141 146 142 137 134 137 136 129 122 108 92 85 74 75 69 61 51 51 49
277 316 321 324 331 304 270 306 302 328 300 271 329 297 297 261 302 68 113 156 70 242 239 169 281 209 208 209 159 193 184 165 315 131 134 136 137 140 143 141 137 132 132 128 113 108 103 87 76 72 75 75 65 55
310 307 308 311 307 298 310 18 328 317 302 310 279 277 282 301 303 301 276 133 136 270 279 252 236 256 66 52 40 69 85 140 167 140 126 134 143 145 144 141 136 135 139 136 132 102 91 84 80 73 75 75 70 61
294 291 298 313 284 256 281 284 273 278 323 348 288 296 313 304 325 292 159 139 64 266 220 241 271 46 31 59 42 65 126 130 140 146 139 143 147 146 151 150 147 139 141 133 122 126 122 112 96 78 67 64 65 61
307 354 326 301 218 310 302 319 243 314 328 302 313 309 292 262 249 198 159 111 61 282 245 220 278 66 51 30 15 69 134 158 166 165 158 151 160 159 152 144 155 162 162 151 156 130 148 100 112 111 92 79 83 84
321 322 286 232 268 306 280 245 302 310 259 292 294 263 258 258 223 139 125 203 218 203 240 319 8 345 162 164 119 140 133 139 133 106 111 135 164 162 161 154 156 160 163 159 152 158 140 138 132 117 109 113 84 58
301 279 244 301 293 223 263 293 260 216 270 270 254 247 214 225 72 132 231 218 152 127 302 297 301 283 302 107 124 135 148 159 147 153 161 170 162 169 168 166 158 151 150 146 147 146 143 126 153 142 126 140 119 115
147 269 271 255 247 290 306 220 248 242 239 250 254 251 205 182 141 244 257 165 84 11 343 329 266 215 170 168 171 154 160 161 148 146 167 156 161 168 173 170 165 159 151 147 153 142 143 164 141 163 151 142 138 119
253 189 234 221 215 245 232 196 235 230 245 222 253 226 193 193 229 223 223 110 52 37 8 9 186 216 341 99 131 152 153 136 145 168 153 181 170 163 173 170 174 160 155 162 161 156 153 150 170 156 150 141 121 122
241 187 208 225 188 237 280 275 215 277 296 269 237 267 234 248 240 187 72 54 81 41 40 13 353 343 89 67 74 155 168 154 119 158 199 197 185 184 184 185 187 178 182 177 163 158 156 158 155 153 127 114 71 114
246 231 212 234 286 271 268 236 263 274 259 274 336 322 290 248 193 78 124 59 22 356 329 331 341 329 333 349 28 94 135 142 139 93 240 227 215 225 210 196 199 167 172 175 165 158 156 158 155 158 142 132 120 105
269 283 233 180 226 236 268 264 234 205 135 332 277 268 287 335 19 31 358 356 327 311 294 266 258 266 284 307 339 304 127 129 122 158 169 130 161 186 172 139 110 119 154 158 155 147 149 145 145 146 144 131 116 99
235 216 223 243 225 227 225 250 264 120 148 189 213 208 261 211 211 243 255 298 302 276 265 271 266 286 261 62 350 152 151 171 162 179 203 193 164 154 143 128 141 141 135 126 53 112 134 133 136 133 128 121 115 114
229 197 226 242 225 220 212 239 330 11 303 287 216 146 165 199 223 216 259 261 264 281 302 306 292 274 267 259 127 129 141 173 217 189 222 184 146 140 151 150 142 137 134 130 122 108 101 111 111 123 130 132 130 127
246 202 234 234 260 263 304 310 276 253 260 267 299 310 6 132 227 219 278 311 301 300 311 317 295 332 337 336 317 227 187 165 192 151 144 117 139 143 139 139 135 135 137 138 144 147 144 149 143 138 137 126 120 136
201 216 230 242 246 272 278 260 281 271 266 257 261 197 169 215 243 146 126 298 296 326 52 350 329 341 348 340 322 257 288 301 266 179 160 152 151 139 139 131 135 137 139 140 142 146 150 146 144 140 134 135 133 126
214 230 219 266 267 277 262 245 244 292 260 262 253 193 204 247 277 97 95 46 5 358 343 345 327 320 331 337 334 320 325 60 37 52 85 114 121 132 134 136 138 137 136 136 139 142 144 141 136 136 134 135 132 128